Zurück zum Katalog

FENGYUN 1C DEB

LostPO
NORAD 36170·DEBRIS·🇨🇳 China

Gestartet May 10, 1999 von Taiyuan Satellite Launch Center

Loading…

Nächste Überflüge (nächste 24 Stunden)

TLE

VeraltetSource: Space-Track

Epoche: Jul 27, 2024, 22:42 UTC

1 36170U 99025DST 24209.94646867  .00003336  00000-0  22029-2 0  9991
2 36170  98.0145 107.7784 0125574 309.3644  49.6450 13.98456293827042

Verfolge FENGYUN 1C DEB in Echtzeit mit AllMySat

Download on the App Store